• In Latvia
  • List of Countries
  • For 7 days
  • Water Temperature
  • Satellite Maps
  • Weather Map
  • Weather Widgets
  • user-avatar
    Login

    Hourly Weather Brisbane

    Today, 19 August, Saturday

    Time Temperature Precipitation Wind Pressure Humidity
    00:00 +14°C° 0 mm 6 mps 761 mmHg 38%
    01:00 +14°C° 0 mm 6 mps 761 mmHg 39%
    02:00 +13°C° 0 mm 6 mps 761 mmHg 40%
    03:00 +13°C° 0 mm 6 mps 761 mmHg 40%
    04:00 +12°C° 0 mm 5 mps 760 mmHg 44%
    05:00 +11°C° 0 mm 6 mps 760 mmHg 43%
    06:00 +11°C° 0 mm 6 mps 761 mmHg 43%
    07:00 +11°C° 0 mm 7 mps 761 mmHg 42%
    08:00 +12°C° 0 mm 7 mps 761 mmHg 36%
    09:00 +15°C° 0 mm 8 mps 761 mmHg 30%
    10:00 +19°C° 0 mm 6 mps 760 mmHg 21%
    11:00 +18°C° 0 mm 7 mps 760 mmHg 19%
    12:00 +20°C° 0 mm 7 mps 759 mmHg 18%
    13:00 +21°C° 0 mm 7 mps 759 mmHg 16%
    14:00 +21°C° 0 mm 7 mps 759 mmHg 16%
    15:00 +21°C° 0 mm 7 mps 759 mmHg 17%
    16:00 +20°C° 0 mm 7 mps 759 mmHg 17%
    17:00 +18°C° 0 mm 7 mps 759 mmHg 20%
    18:00 +16°C° 0 mm 6 mps 760 mmHg 22%
    19:00 +15°C° 0 mm 6 mps 761 mmHg 25%
    20:00 +14°C° 0 mm 6 mps 761 mmHg 26%
    21:00 +13°C° 0 mm 6 mps 762 mmHg 27%
    22:00 +11°C° 0 mm 6 mps 762 mmHg 28%
    23:00 +11°C° 0 mm 6 mps 762 mmHg 31%

    Tomorrow, 20 August, Sunday

    Time Temperature Precipitation Wind Pressure Humidity
    00:00 +10°C° 0 mm 5 mps 762 mmHg 33%
    01:00 +9°C° 0 mm 5 mps 762 mmHg 35%
    02:00 +9°C° 0 mm 5 mps 762 mmHg 38%
    03:00 +8°C° 0 mm 5 mps 762 mmHg 42%
    04:00 +8°C° 0 mm 5 mps 762 mmHg 45%
    05:00 +8°C° 0 mm 5 mps 763 mmHg 46%
    06:00 +8°C° 0 mm 5 mps 763 mmHg 48%
    07:00 +8°C° 0 mm 5 mps 763 mmHg 49%
    08:00 +12°C° 0 mm 5 mps 763 mmHg 44%
    09:00 +14°C° 0 mm 5 mps 763 mmHg 40%
    10:00 +17°C° 0 mm 5 mps 763 mmHg 35%
    11:00 +19°C° 0 mm 5 mps 763 mmHg 32%
    12:00 +20°C° 0 mm 5 mps 762 mmHg 30%
    13:00 +21°C° 0 mm 4 mps 762 mmHg 27%
    14:00 +21°C° 0 mm 4 mps 762 mmHg 28%
    15:00 +21°C° 0 mm 4 mps 762 mmHg 29%
    16:00 +21°C° 0 mm 5 mps 761 mmHg 31%
    17:00 +19°C° 0 mm 4 mps 762 mmHg 37%
    18:00 +17°C° 0 mm 4 mps 763 mmHg 44%
    19:00 +14°C° 0 mm 4 mps 763 mmHg 51%
    20:00 +14°C° 0 mm 4 mps 764 mmHg 54%
    21:00 +13°C° 0 mm 4 mps 764 mmHg 58%
    22:00 +12°C° 0 mm 4 mps 765 mmHg 61%
    23:00 +12°C° 0 mm 4 mps 764 mmHg 64%

    Day after tomorrow, 21 August, Monday

    Time Temperature Precipitation Wind Pressure Humidity
    00:00 +11°C° 0 mm 3 mps 764 mmHg 68%
    01:00 +11°C° 0 mm 3 mps 764 mmHg 71%
    02:00 +10°C° 0 mm 3 mps 764 mmHg 74%
    03:00 +10°C° 0 mm 3 mps 764 mmHg 76%
    04:00 +9°C° 0 mm 3 mps 763 mmHg 78%
    05:00 +10°C° 0 mm 3 mps 764 mmHg 78%
    06:00 +10°C° 0 mm 3 mps 764 mmHg 77%
    07:00 +10°C° 0 mm 3 mps 765 mmHg 76%
    08:00 +14°C° 0 mm 2 mps 765 mmHg 67%
    09:00 +18°C° 0 mm 2 mps 765 mmHg 58%
    10:00 +21°C° 0 mm 2 mps 765 mmHg 49%
    11:00 +23°C° 0 mm 2 mps 764 mmHg 45%
    12:00 +24°C° 0 mm 2 mps 763 mmHg 42%
    13:00 +25°C° 0 mm 2 mps 763 mmHg 38%
    14:00 +24°C° 0 mm 2 mps 762 mmHg 43%
    15:00 +22°C° 0 mm 3 mps 762 mmHg 47%
    16:00 +22°C° 0 mm 3 mps 762 mmHg 51%
    17:00 +20°C° 0 mm 3 mps 762 mmHg 58%
    18:00 +19°C° 0 mm 3 mps 763 mmHg 66%
    19:00 +17°C° 0 mm 3 mps 763 mmHg 73%
    20:00 +17°C° 0 mm 3 mps 763 mmHg 76%
    21:00 +16°C° 0 mm 3 mps 764 mmHg 78%
    22:00 +16°C° 0 mm 3 mps 764 mmHg 80%
    23:00 +16°C° 0 mm 3 mps 763 mmHg 81%

    22 August, Tuesday

    Time Temperature Precipitation Wind Pressure Humidity
    00:00 +14°C° 0 mm 3 mps 763 mmHg 82%
    01:00 +14°C° 0 mm 3 mps 763 mmHg 83%
    02:00 +14°C° 0 mm 3 mps 763 mmHg 85%
    03:00 +13°C° 0 mm 3 mps 762 mmHg 86%
    04:00 +13°C° 0 mm 3 mps 762 mmHg 87%
    05:00 +13°C° 0 mm 3 mps 762 mmHg 86%
    06:00 +13°C° 0 mm 3 mps 763 mmHg 85%
    07:00 +14°C° 0 mm 3 mps 763 mmHg 84%
    08:00 +17°C° 0 mm 4 mps 763 mmHg 74%
    09:00 +20°C° 0 mm 4 mps 763 mmHg 64%
    10:00 +23°C° 0 mm 4 mps 763 mmHg 54%
    11:00 +25°C° 0 mm 4 mps 762 mmHg 47%
    12:00 +27°C° 0 mm 4 mps 761 mmHg 39%
    13:00 +28°C° 0 mm 4 mps 761 mmHg 32%
    14:00 +28°C° 0 mm 4 mps 760 mmHg 33%
    15:00 +28°C° 0 mm 5 mps 760 mmHg 33%
    16:00 +28°C° 0 mm 5 mps 760 mmHg 33%
    17:00 +26°C° 0 mm 5 mps 760 mmHg 39%
    18:00 +22°C° 0 mm 4 mps 761 mmHg 45%
    19:00 +20°C° 0 mm 4 mps 761 mmHg 50%
    20:00 +19°C° 0 mm 4 mps 762 mmHg 50%
    21:00 +18°C° 0 mm 4 mps 762 mmHg 49%
    22:00 +17°C° 0 mm 3 mps 763 mmHg 49%
    23:00 +16°C° 0 mm 3 mps 763 mmHg 49%

    23 August, Wednesday

    Time Temperature Precipitation Wind Pressure Humidity
    00:00 +14°C° 0 mm 3 mps 762 mmHg 50%
    01:00 +14°C° 0 mm 3 mps 762 mmHg 50%
    02:00 +13°C° 0 mm 3 mps 762 mmHg 52%
    03:00 +13°C° 0 mm 3 mps 762 mmHg 53%
    04:00 +13°C° 0 mm 3 mps 762 mmHg 55%
    05:00 +14°C° 0 mm 2 mps 763 mmHg 56%
    06:00 +14°C° 0 mm 2 mps 763 mmHg 57%
    07:00 +14°C° 0 mm 2 mps 764 mmHg 59%
    08:00 +17°C° 0 mm 2 mps 764 mmHg 50%
    09:00 +21°C° 0 mm 2 mps 763 mmHg 41%
    10:00 +25°C° 0 mm 2 mps 763 mmHg 32%
    11:00 +27°C° 0 mm 1 mps 763 mmHg 28%
    12:00 +28°C° 0 mm 1 mps 762 mmHg 24%
    13:00 +30°C° 0 mm 1 mps 761 mmHg 20%
    14:00 +29°C° 0 mm 2 mps 761 mmHg 22%
    15:00 +29°C° 0 mm 2 mps 761 mmHg 24%
    16:00 +28°C° 0 mm 3 mps 761 mmHg 26%
    17:00 +25°C° 0 mm 2 mps 761 mmHg 35%
    18:00 +23°C° 0 mm 2 mps 762 mmHg 44%
    19:00 +19°C° 0 mm 2 mps 762 mmHg 53%
    20:00 +19°C° 0 mm 1 mps 763 mmHg 57%
    21:00 +19°C° 0 mm 1 mps 763 mmHg 60%
    22:00 +18°C° 0 mm 1 mps 763 mmHg 64%
    23:00 +16°C° 0 mm 1 mps 763 mmHg 65%

    24 August, Thursday

    Time Temperature Precipitation Wind Pressure Humidity
    00:00 +16°C° 0 mm 1 mps 763 mmHg 66%
    01:00 +15°C° 0 mm 2 mps 762 mmHg 67%
    02:00 +15°C° 0 mm 2 mps 762 mmHg 65%
    03:00 +14°C° 0 mm 2 mps 762 mmHg 64%
    04:00 +14°C° 0 mm 2 mps 762 mmHg 63%
    05:00 +14°C° 0 mm 2 mps 763 mmHg 61%
    06:00 +14°C° 0 mm 2 mps 763 mmHg 60%
    07:00 +15°C° 0 mm 2 mps 764 mmHg 58%
    08:00 +18°C° 0 mm 2 mps 764 mmHg 51%
    09:00 +21°C° 0 mm 2 mps 764 mmHg 44%
    10:00 +25°C° 0 mm 2 mps 764 mmHg 37%
    11:00 +26°C° 0 mm 2 mps 763 mmHg 34%
    12:00 +28°C° 0 mm 2 mps 762 mmHg 31%
    13:00 +29°C° 0 mm 2 mps 762 mmHg 28%
    14:00 +28°C° 0 mm 3 mps 762 mmHg 33%
    15:00 +26°C° 0 mm 4 mps 762 mmHg 39%
    16:00 +25°C° 0 mm 5 mps 762 mmHg 45%
    17:00 +22°C° 0.1 mm 5 mps 762 mmHg 56%
    18:00 +20°C° 0.1 mm 5 mps 763 mmHg 67%
    19:00 +17°C° 0.1 mm 5 mps 764 mmHg 77%
    20:00 +18°C° 0.1 mm 4 mps 764 mmHg 80%
    21:00 +17°C° 0.1 mm 4 mps 764 mmHg 83%
    22:00 +15°C° 0.1 mm 4 mps 765 mmHg 86%
    23:00 +15°C° 0.1 mm 4 mps 765 mmHg 87%
    Show more